Andover, NJ

9:40 PM EST on February 23, 2018 (GMT -0500)
Andover

Weather History for K12N - October, 2011

Change the Weather History Date:

Monday, October 17, 2011

  Actual Average (KFWN) Record (KFWN)
Temperature  
Mean Temperature 55 °F -  
Max Temperature 64 °F 64 °F 82 °F (1963)
Min Temperature 45 °F 37 °F 25 °F (1978)
Degree Days  
Heating Degree Days 10    
Growing Degree Days 5 (Base 50)    
Moisture  
Dew Point 41 °F    
Average Humidity 62    
Maximum Humidity 90    
Minimum Humidity 31    
Precipitation  
Precipitation 0.01 in - - ()
Sea Level Pressure  
Sea Level Pressure 29.74 in    
Wind  
Wind Speed 3 mph (SW)    
Max Wind Speed 12 mph    
Max Gust Speed 20 mph    
Averages and records for this station are not official NWS values.
T = Trace of Precipitation, MM = Missing Value Source: NWS Daily Summary

Daily Weather History Graph

Daily Weather History Graph

Search for Another Location

Airport or City:

Trip Planner

Search our weather history database for the weather conditions in past years. The results will help you decide how hot, cold, wet, or windy it might be!

Date:

Astronomy

Oct. 17, 2011 Rise Set
Actual Time 7:12 AM EDT 6:15 PM EDT
Civil Twilight 6:44 AM EDT 6:43 PM EDT
Nautical Twilight 6:12 AM EDT 7:15 PM EDT
Astronomical Twilight 5:40 AM EDT 7:47 PM EDT
Moon 9:52 PM EDT (10/17) 12:18 PM EDT (10/17)
Length of Visible Light 11h 58m
Length of Day
11h 03m
Waning Gibbous, 74% of the Moon is Illuminated
Oct 17
Waning Gibbous
Oct 19
Last Quarter
Oct 26
New
Nov 2
First Quarter
Nov 10
Full

Hourly Weather History & Observations

Time (EDT) Temp. Dew Point Humidity Pressure Visibility Wind Dir Wind Speed Gust Speed Precip Events Conditions
12:54 AM 60.1 °F 46.9 °F 62% 29.66 in - SW 3.5 mph - N/A   Unknown
1:54 AM 57.9 °F 48.0 °F 70% 29.69 in - Calm Calm - N/A   Unknown
2:54 AM 55.0 °F 50.0 °F 83% 29.68 in - Calm Calm - N/A   Unknown
3:54 AM 54.0 °F 51.1 °F 90% 29.68 in - Calm Calm - N/A   Unknown
4:54 AM 54.0 °F 51.1 °F 90% 29.69 in - Calm Calm - 0.01 in   Unknown
5:54 AM 54.0 °F 51.1 °F 90% 29.73 in - Calm Calm - N/A   Unknown
6:54 AM 54.0 °F 46.9 °F 77% 29.74 in - Variable 4.6 mph - N/A   Unknown
7:54 AM 50.0 °F 46.9 °F 89% 29.77 in - Calm Calm - N/A   Unknown
8:54 AM 54.0 °F 45.0 °F 72% 29.80 in - SW 3.5 mph - N/A   Unknown
9:54 AM 55.9 °F 39.9 °F 55% 29.79 in - SW 8.1 mph - N/A   Unknown
10:54 AM 57.9 °F 37.9 °F 47% 29.79 in - Variable 6.9 mph 16.1 mph N/A   Unknown
11:54 AM 60.1 °F 36.0 °F 41% 29.78 in - WSW 10.4 mph 17.3 mph N/A   Unknown
12:54 PM 62.1 °F 34.0 °F 35% 29.75 in - SW 8.1 mph - N/A   Unknown
1:54 PM 63.0 °F 34.0 °F 34% 29.72 in - SW 8.1 mph 19.6 mph N/A   Unknown
2:54 PM 64.0 °F 33.1 °F 31% 29.71 in - SW 8.1 mph - N/A   Unknown
3:54 PM 64.0 °F 34.0 °F 33% 29.70 in - SW 11.5 mph 18.4 mph N/A   Unknown
4:54 PM 63.0 °F 34.0 °F 34% 29.71 in - SW 6.9 mph 19.6 mph N/A   Unknown
5:54 PM 61.0 °F 35.1 °F 38% 29.73 in - SSW 4.6 mph - N/A   Unknown
6:54 PM 57.9 °F 35.1 °F 42% 29.74 in - Calm Calm - N/A   Unknown
7:54 PM 54.0 °F 37.9 °F 55% 29.76 in - Calm Calm - N/A   Unknown
8:54 PM 50.0 °F 39.9 °F 68% 29.77 in - Calm Calm - N/A   Unknown
9:54 PM 48.0 °F 41.0 °F 77% 29.79 in - Calm Calm - N/A   Unknown
10:54 PM 46.0 °F 42.1 °F 86% 29.81 in - Calm Calm - N/A   Unknown
11:54 PM 45.0 °F 41.0 °F 86% 29.82 in - Calm Calm - N/A   Unknown